Location: Augirein
(42.9320°N, 0.9181°E)
Time: 10:01:54
(UTC+00:00)

X-37B - Pass Details

Date: 22 September 2021
Orbit: 385 x 389 km, 45.0° (Epoch: 13 October)

Event Time Altitude Azimuth Distance (km) Brightness Sun altitude
Exits shadow 04:55:29 12° 234° (SW) 1,308 2.7 -9.6°
Maximum altitude 04:58:21 55° 157° (SSE) 473 1.1 -9.1°
Drops below altitude 10° 05:01:28 10° 78° (ENE) 1,416 5.2 -8.5°
Sets 05:03:34 0° 74° (ENE) 2,273 6.7 -8.1°
